Data No, UTC Date,UTC Time,Latitude,Longitude,Course(deg),Temp(degC),Sal(psu),pH
520,2019/7/6,8:39,42-36.92N,141-37.05E,210,15.468,31.0029,8.07
521,2019/7/6,8:40,42-36.69N,141-36.87E,210,16.105,31.0167,8.08
522,2019/7/6,8:41,42-36.45N,141-36.69E,202,15.482,30.9517,8.1
523,2019/7/6,8:42,42-36.19N,141-36.67E,178,16.291,30.9217,8.11
524,2019/7/6,8:43,42-35.91N,141-36.69E,176,15.398,30.9806,8.15
525,2019/7/6,8:44,42-35.64N,141-36.72E,175,15.119,31.0193,8.16
526,2019/7/6,8:45,42-35.36N,141-36.75E,175,15.068,31.1592,8.16
527,2019/7/6,8:46,42-35.08N,141-36.77E,176,15.216,31.2432,8.16
528,2019/7/6,8:47,42-34.80N,141-36.79E,176,15.024,31.2814,8.15
529,2019/7/6,8:48,42-34.52N,141-36.81E,177,14.909,31.3481,8.15
530,2019/7/6,8:49,42-34.24N,141-36.83E,177,14.867,31.4788,8.15
531,2019/7/6,8:50,42-33.95N,141-36.84E,177,14.991,31.5954,8.15
532,2019/7/6,8:51,42-33.67N,141-36.86E,177,15.102,31.6185,8.15
533,2019/7/6,8:52,42-33.39N,141-36.87E,177,14.89,31.6162,8.15
534,2019/7/6,8:53,42-33.11N,141-36.89E,178,15.035,31.6547,8.15
535,2019/7/6,8:54,42-32.83N,141-36.91E,175,14.79,31.681,8.15
536,2019/7/6,8:55,42-32.55N,141-36.94E,173,14.794,31.702,8.15
537,2019/7/6,8:56,42-32.27N,141-36.99E,173,14.573,31.7464,8.15
538,2019/7/6,8:57,42-32.00N,141-37.03E,173,14.433,31.7588,8.15
539,2019/7/6,8:58,42-31.72N,141-37.07E,173,14.492,31.7966,8.15
540,2019/7/6,8:59,42-31.44N,141-37.11E,173,14.48,31.8107,8.15
541,2019/7/6,9:00,42-31.16N,141-37.15E,173,14.324,31.7927,8.15
542,2019/7/6,9:01,42-30.88N,141-37.20E,173,14.699,31.7941,8.15
543,2019/7/6,9:02,42-30.61N,141-37.23E,174,14.815,31.7945,8.15
544,2019/7/6,9:03,42-30.33N,141-37.26E,177,14.698,31.7354,8.15
545,2019/7/6,9:04,42-30.04N,141-37.27E,178,14.858,31.7302,8.15
546,2019/7/6,9:05,42-29.76N,141-37.27E,179,14.97,31.732,8.15
547,2019/7/6,9:06,42-29.48N,141-37.27E,180,14.775,31.7171,8.15
548,2019/7/6,9:07,42-29.21N,141-37.27E,179,14.73,31.7294,8.15
549,2019/7/6,9:08,42-28.93N,141-37.28E,179,14.79,31.7912,8.15
550,2019/7/6,9:09,42-28.65N,141-37.28E,180,15.335,31.8016,8.15
551,2019/7/6,9:10,42-28.37N,141-37.28E,180,15.14,31.7675,8.15
552,2019/7/6,9:11,42-28.09N,141-37.27E,180,15.095,31.6992,8.15
553,2019/7/6,9:12,42-27.81N,141-37.27E,180,15.101,31.7273,8.15
554,2019/7/6,9:13,42-27.54N,141-37.27E,180,15.033,31.7498,8.15
555,2019/7/6,9:14,42-27.25N,141-37.26E,180,14.573,31.7567,8.15
556,2019/7/6,9:15,42-26.97N,141-37.25E,181,14.508,31.8071,8.15
557,2019/7/6,9:16,42-26.71N,141-37.25E,181,15.15,31.8686,8.15
558,2019/7/6,9:17,42-26.43N,141-37.24E,180,14.998,31.8164,8.15
559,2019/7/6,9:18,42-26.16N,141-37.23E,180,14.667,31.7321,8.15
560,2019/7/6,9:19,42-25.88N,141-37.23E,180,14.338,31.761,8.14
561,2019/7/6,9:20,42-25.61N,141-37.22E,180,14.607,31.8384,8.14
562,2019/7/6,9:21,42-25.33N,141-37.23E,179,14.539,31.8675,8.15
563,2019/7/6,9:22,42-25.05N,141-37.25E,179,14.625,31.8268,8.14
564,2019/7/6,9:23,42-24.78N,141-37.24E,179,14.841,31.8351,8.13
565,2019/7/6,9:24,42-24.51N,141-37.25E,179,15.271,31.8263,8.13
566,2019/7/6,9:25,42-24.24N,141-37.24E,179,15.284,31.7825,8.13
567,2019/7/6,9:26,42-23.96N,141-37.24E,179,15.216,31.7639,8.13
568,2019/7/6,9:27,42-23.68N,141-37.24E,179,15.176,31.8198,8.11
569,2019/7/6,9:28,42-23.41N,141-37.24E,179,15.131,31.8922,8.11
570,2019/7/6,9:29,42-23.13N,141-37.25E,179,15.256,31.9537,8.11
571,2019/7/6,9:30,42-22.84N,141-37.25E,179,15.36,32.0169,8.11
572,2019/7/6,9:31,42-22.57N,141-37.25E,179,15.127,32.0653,8.1
573,2019/7/6,9:32,42-22.29N,141-37.25E,181,14.71,32.1236,8.1
574,2019/7/6,9:33,42-22.00N,141-37.23E,182,15.41,32.2586,8.1
575,2019/7/6,9:34,42-21.73N,141-37.22E,182,15.542,32.3032,8.1
576,2019/7/6,9:35,42-21.45N,141-37.20E,182,15.831,32.2765,8.1
577,2019/7/6,9:36,42-21.17N,141-37.18E,182,15.789,32.2877,8.1
578,2019/7/6,9:37,42-20.89N,141-37.16E,183,15.836,32.3022,8.09
579,2019/7/6,9:38,42-20.61N,141-37.14E,182,15.949,32.358,8.1
580,2019/7/6,9:39,42-20.32N,141-37.12E,182,16.12,32.4174,8.1
581,2019/7/6,9:40,42-20.05N,141-37.10E,182,16.199,32.4464,8.09
582,2019/7/6,9:41,42-19.78N,141-37.08E,182,16.094,32.4565,8.09
583,2019/7/6,9:42,42-19.50N,141-37.07E,182,15.974,32.482,8.09
584,2019/7/6,9:43,42-19.22N,141-37.05E,182,15.784,32.5442,8.08
585,2019/7/6,9:44,42-18.94N,141-37.03E,182,15.633,32.5914,8.08
586,2019/7/6,9:45,42-18.66N,141-37.02E,182,15.512,32.6474,8.08
587,2019/7/6,9:46,42-18.37N,141-37.01E,181,15.545,32.6833,8.09
588,2019/7/6,9:47,42-18.11N,141-37.00E,181,15.664,32.6905,8.1
589,2019/7/6,9:48,42-17.83N,141-36.98E,182,15.681,32.6793,8.09
590,2019/7/6,9:49,42-17.54N,141-36.97E,181,15.619,32.6612,8.1
591,2019/7/6,9:50,42-17.26N,141-36.96E,181,15.604,32.6606,8.1
592,2019/7/6,9:51,42-16.99N,141-36.95E,180,15.497,32.6641,8.09
593,2019/7/6,9:52,42-16.70N,141-36.94E,181,15.514,32.6665,8.1
594,2019/7/6,9:53,42-16.42N,141-36.92E,182,15.504,32.6666,8.09
595,2019/7/6,9:54,42-16.14N,141-36.92E,180,15.384,32.652,8.1
596,2019/7/6,9:55,42-15.86N,141-36.90E,181,15.337,32.6418,8.1
597,2019/7/6,9:56,42-15.57N,141-36.89E,181,15.262,32.6452,8.1
598,2019/7/6,9:57,42-15.29N,141-36.88E,181,15.379,32.6626,8.1
599,2019/7/6,9:58,42-15.01N,141-36.87E,181,15.358,32.6479,8.1
600,2019/7/6,9:59,42-14.72N,141-36.87E,181,15.346,32.6391,8.1
601,2019/7/6,10:00,42-14.45N,141-36.86E,181,15.217,32.6499,8.1
602,2019/7/6,10:01,42-14.17N,141-36.84E,181,15.04,32.6666,8.1
603,2019/7/6,10:02,42-13.89N,141-36.84E,181,15.119,32.7127,8.1
604,2019/7/6,10:03,42-13.60N,141-36.82E,181,15.123,32.7488,8.1
605,2019/7/6,10:04,42-13.32N,141-36.81E,181,15.189,32.7474,8.1
606,2019/7/6,10:05,42-13.04N,141-36.80E,180,15.237,32.7539,8.1
607,2019/7/6,10:06,42-12.77N,141-36.80E,180,15.295,32.7475,8.1
608,2019/7/6,10:07,42-12.48N,141-36.79E,181,15.293,32.7441,8.1
609,2019/7/6,10:08,42-12.20N,141-36.78E,181,15.292,32.7494,8.1
610,2019/7/6,10:09,42-11.92N,141-36.76E,182,15.258,32.7585,8.1
611,2019/7/6,10:10,42-11.65N,141-36.75E,182,15.242,32.7719,8.1
612,2019/7/6,10:11,42-11.37N,141-36.73E,182,15.215,32.7876,8.1
613,2019/7/6,10:12,42-11.09N,141-36.72E,181,15.188,32.7941,8.1
614,2019/7/6,10:13,42-10.81N,141-36.71E,181,15.197,32.8023,8.1
615,2019/7/6,10:14,42-10.54N,141-36.69E,182,15.238,32.8062,8.11
616,2019/7/6,10:15,42-10.26N,141-36.67E,183,15.247,32.7955,8.11
617,2019/7/6,10:16,42-09.99N,141-36.65E,183,15.278,32.7822,8.11
618,2019/7/6,10:17,42-09.71N,141-36.63E,182,15.308,32.7756,8.1
619,2019/7/6,10:18,42-09.43N,141-36.62E,182,15.253,32.7674,8.11
620,2019/7/6,10:19,42-09.15N,141-36.60E,182,15.187,32.7543,8.1
621,2019/7/6,10:20,42-08.88N,141-36.58E,182,15.22,32.7637,8.1
622,2019/7/6,10:21,42-08.60N,141-36.56E,183,15.3,32.7747,8.1
623,2019/7/6,10:22,42-08.32N,141-36.55E,182,15.298,32.7636,8.1
624,2019/7/6,10:23,42-08.04N,141-36.53E,182,15.213,32.7574,8.1
625,2019/7/6,10:24,42-07.76N,141-36.51E,182,15.245,32.7692,8.11
626,2019/7/6,10:25,42-07.49N,141-36.49E,183,15.261,32.7704,8.11
627,2019/7/6,10:26,42-07.21N,141-36.47E,182,15.228,32.762,8.1
628,2019/7/6,10:27,42-06.93N,141-36.46E,182,15.216,32.7588,8.11
629,2019/7/6,10:28,42-06.65N,141-36.44E,182,15.226,32.755,8.1
630,2019/7/6,10:29,42-06.37N,141-36.42E,183,15.229,32.7526,8.11
631,2019/7/6,10:30,42-06.10N,141-36.41E,181,15.191,32.7468,8.11
632,2019/7/6,10:31,42-05.82N,141-36.39E,182,15.184,32.7502,8.1
633,2019/7/6,10:32,42-05.54N,141-36.37E,182,15.152,32.7545,8.1
634,2019/7/6,10:33,42-05.25N,141-36.35E,183,15.125,32.7549,8.1
635,2019/7/6,10:34,42-04.97N,141-36.33E,182,15.091,32.7585,8.1
636,2019/7/6,10:35,42-04.70N,141-36.31E,183,15.196,32.7735,8.11
637,2019/7/6,10:36,42-04.42N,141-36.29E,182,15.261,32.7697,8.11
638,2019/7/6,10:37,42-04.14N,141-36.28E,182,15.247,32.7505,8.11
639,2019/7/6,10:38,42-03.86N,141-36.26E,183,15.306,32.7459,8.11
640,2019/7/6,10:39,42-03.57N,141-36.24E,182,15.266,32.7573,8.11
641,2019/7/6,10:40,42-03.29N,141-36.22E,182,15.044,32.7586,8.11
642,2019/7/6,10:41,42-03.02N,141-36.20E,183,14.987,32.7869,8.11
643,2019/7/6,10:42,42-02.74N,141-36.18E,182,14.958,32.8209,8.11
644,2019/7/6,10:43,42-02.46N,141-36.16E,182,15.035,32.8433,8.11
645,2019/7/6,10:44,42-02.18N,141-36.15E,183,15.012,32.8383,8.11
646,2019/7/6,10:45,42-01.90N,141-36.12E,184,15.008,32.8265,8.11
647,2019/7/6,10:46,42-01.62N,141-36.10E,183,14.927,32.8253,8.11
648,2019/7/6,10:47,42-01.32N,141-36.08E,183,14.761,32.8246,8.11
649,2019/7/6,10:48,42-01.06N,141-36.06E,183,14.631,32.8344,8.11
650,2019/7/6,10:49,42-00.79N,141-36.03E,183,14.555,32.8447,8.11
651,2019/7/6,10:50,42-00.51N,141-36.01E,184,14.882,32.844,8.12
652,2019/7/6,10:51,42-00.23N,141-35.99E,183,15.215,32.812,8.12
653,2019/7/6,10:52,41-59.96N,141-35.96E,183,15.203,32.7052,8.12
654,2019/7/6,10:53,41-59.68N,141-35.94E,184,15.131,32.6361,8.12
655,2019/7/6,10:54,41-59.40N,141-35.91E,183,15.047,32.6463,8.12
656,2019/7/6,10:55,41-59.13N,141-35.89E,183,14.974,32.6896,8.12
657,2019/7/6,10:56,41-58.85N,141-35.86E,184,14.887,32.7354,8.12
658,2019/7/6,10:57,41-58.58N,141-35.84E,183,14.781,32.7723,8.12
659,2019/7/6,10:58,41-58.30N,141-35.81E,183,---,32.7969,8.12
660,2019/7/6,10:59,41-58.02N,141-35.79E,183,15.052,32.8138,8.13
661,2019/7/6,11:00,41-57.74N,141-35.77E,183,15.22,32.7824,8.12
662,2019/7/6,11:01,41-57.47N,141-35.74E,183,15.212,32.749,8.13
663,2019/7/6,11:02,41-57.19N,141-35.72E,184,15.148,32.7315,8.13
664,2019/7/6,11:03,41-56.92N,141-35.69E,184,15.089,32.7506,8.12
665,2019/7/6,11:04,41-56.64N,141-35.67E,183,15.017,32.7844,8.12
666,2019/7/6,11:05,41-56.36N,141-35.65E,183,14.864,32.8337,8.13
667,2019/7/6,11:06,41-56.09N,141-35.63E,184,14.739,32.8784,8.12
668,2019/7/6,11:07,41-55.82N,141-35.60E,184,14.607,32.9238,8.13
669,2019/7/6,11:08,41-55.54N,141-35.57E,184,14.491,32.9688,8.13
670,2019/7/6,11:09,41-55.26N,141-35.54E,184,14.377,33.0008,8.13
671,2019/7/6,11:10,41-54.99N,141-35.52E,183,14.424,33.0187,8.13
672,2019/7/6,11:11,41-54.72N,141-35.49E,184,14.576,33.0141,8.13
673,2019/7/6,11:12,41-54.45N,141-35.47E,184,14.549,32.9754,8.13
674,2019/7/6,11:13,41-54.17N,141-35.44E,184,14.466,32.9423,8.13
675,2019/7/6,11:14,41-53.88N,141-35.41E,183,14.458,32.9311,8.13
676,2019/7/6,11:15,41-53.62N,141-35.38E,183,14.494,32.9451,8.13
677,2019/7/6,11:16,41-53.35N,141-35.35E,184,14.344,32.9365,8.13
678,2019/7/6,11:17,41-53.07N,141-35.32E,184,14.54,32.9271,8.13
679,2019/7/6,11:18,41-52.79N,141-35.30E,184,14.765,32.9368,8.13
680,2019/7/6,11:19,41-52.52N,141-35.27E,184,14.928,32.9003,8.13
681,2019/7/6,11:20,41-52.25N,141-35.25E,182,15.329,32.8778,8.13
682,2019/7/6,11:21,41-51.98N,141-35.23E,182,15.399,32.8578,8.13
683,2019/7/6,11:22,41-51.71N,141-35.21E,183,15.47,32.8208,8.12
684,2019/7/6,11:23,41-51.43N,141-35.19E,183,15.443,32.8305,8.12
685,2019/7/6,11:24,41-51.16N,141-35.18E,182,15.408,32.8624,8.12
686,2019/7/6,11:25,41-50.86N,141-35.16E,182,15.43,32.8988,8.12
687,2019/7/6,11:26,41-50.60N,141-35.15E,182,15.325,32.9148,8.12
688,2019/7/6,11:27,41-50.32N,141-35.13E,182,15.275,32.924,8.11
689,2019/7/6,11:28,41-50.05N,141-35.12E,181,15.233,32.9211,8.12
690,2019/7/6,11:29,41-49.77N,141-35.11E,181,15.365,32.914,8.12
691,2019/7/6,11:30,41-49.49N,141-35.10E,181,15.337,32.8655,8.12
692,2019/7/6,11:31,41-49.22N,141-35.09E,181,15.3,32.8029,8.12
693,2019/7/6,11:32,41-48.94N,141-35.08E,181,15.265,32.7132,8.12
694,2019/7/6,11:33,41-48.65N,141-35.07E,181,15.254,32.6473,8.11
695,2019/7/6,11:34,41-48.38N,141-35.05E,182,15.22,32.6011,8.12
696,2019/7/6,11:35,41-48.10N,141-35.05E,180,15.199,32.5685,8.11
697,2019/7/6,11:36,41-47.82N,141-35.05E,179,15.196,32.5393,8.11
698,2019/7/6,11:37,41-47.53N,141-35.05E,179,15.182,32.5157,8.11
699,2019/7/6,11:38,41-47.25N,141-35.05E,179,15.156,32.4978,8.11
700,2019/7/6,11:39,41-46.97N,141-35.06E,179,15.125,32.4917,8.11
701,2019/7/6,11:40,41-46.69N,141-35.06E,179,15.089,32.4939,8.11
702,2019/7/6,11:41,41-46.42N,141-35.06E,179,15.013,32.4939,8.12
703,2019/7/6,11:42,41-46.14N,141-35.07E,179,14.932,32.5007,8.11
704,2019/7/6,11:43,41-45.86N,141-35.07E,179,14.969,32.5127,8.1
705,2019/7/6,11:44,41-45.58N,141-35.07E,179,15.043,32.5304,8.11
706,2019/7/6,11:45,41-45.29N,141-35.07E,179,15.038,32.5252,8.11
707,2019/7/6,11:46,41-45.00N,141-35.08E,179,14.939,32.5195,8.11
708,2019/7/6,11:47,41-44.73N,141-35.08E,180,14.685,32.5253,8.12
709,2019/7/6,11:48,41-44.45N,141-35.07E,180,14.353,32.5689,8.12
710,2019/7/6,11:49,41-44.17N,141-35.11E,173,14.209,32.6381,8.11
711,2019/7/6,11:50,41-43.89N,141-35.14E,174,14.146,32.7085,8.11
712,2019/7/6,11:51,41-43.62N,141-35.17E,176,14.142,32.7307,8.11
713,2019/7/6,11:52,41-43.34N,141-35.19E,176,14.064,32.7681,8.1
714,2019/7/6,11:53,41-43.07N,141-35.21E,175,14.089,32.851,8.1
715,2019/7/6,11:54,41-42.79N,141-35.25E,174,14.088,33.0193,8.1
716,2019/7/6,11:55,41-42.50N,141-35.29E,174,14.145,33.176,8.1
717,2019/7/6,11:56,41-42.24N,141-35.32E,174,14.244,33.2936,8.1
718,2019/7/6,11:57,41-41.96N,141-35.35E,174,14.28,33.3503,8.1
719,2019/7/6,11:58,41-41.68N,141-35.39E,174,14.235,33.3722,8.1
720,2019/7/6,11:59,41-41.41N,141-35.42E,174,14.188,33.3916,8.1
721,2019/7/6,12:00,41-41.12N,141-35.46E,174,14.081,33.4282,8.11
722,2019/7/6,12:01,41-40.83N,141-35.50E,174,13.907,33.4593,8.1
723,2019/7/6,12:02,41-40.57N,141-35.53E,174,13.887,33.4894,8.1
724,2019/7/6,12:03,41-40.28N,141-35.57E,174,13.897,33.5178,8.1
725,2019/7/6,12:04,41-39.99N,141-35.60E,174,13.831,33.5313,8.1
726,2019/7/6,12:05,41-39.72N,141-35.64E,174,13.769,33.5437,8.1
727,2019/7/6,12:06,41-39.44N,141-35.67E,174,13.794,33.5674,8.1
728,2019/7/6,12:07,41-39.16N,141-35.71E,174,13.718,33.5805,8.1
729,2019/7/6,12:08,41-38.88N,141-35.73E,176,13.707,33.5905,8.1
730,2019/7/6,12:09,41-38.61N,141-35.75E,176,13.677,33.6131,8.1
731,2019/7/6,12:10,41-38.33N,141-35.77E,177,13.687,33.6247,8.1
732,2019/7/6,12:11,41-38.05N,141-35.78E,178,13.62,33.6343,8.1
733,2019/7/6,12:12,41-37.77N,141-35.79E,178,13.587,33.6317,8.1
734,2019/7/6,12:13,41-37.50N,141-35.80E,178,13.14,33.6317,8.1
735,2019/7/6,12:14,41-37.22N,141-35.81E,179,12.83,33.6295,8.1
736,2019/7/6,12:15,41-36.95N,141-35.82E,178,12.705,33.6747,8.1
737,2019/7/6,12:16,41-36.66N,141-35.83E,178,12.758,33.5204,8.11
738,2019/7/6,12:17,41-36.38N,141-35.84E,178,13.03,33.3598,8.11
739,2019/7/6,12:18,41-36.10N,141-35.85E,178,13.891,33.189,8.11
740,2019/7/6,12:19,41-35.81N,141-35.86E,178,14.172,32.9624,8.11
741,2019/7/6,12:20,41-35.53N,141-35.87E,178,14.318,32.8044,8.11
742,2019/7/6,12:21,41-35.25N,141-35.87E,180,14.418,32.781,8.12
743,2019/7/6,12:22,41-34.98N,141-35.87E,180,14.576,32.8156,8.12
744,2019/7/6,12:23,41-34.69N,141-35.85E,182,14.668,32.871,8.12
745,2019/7/6,12:24,41-34.40N,141-35.83E,180,14.677,32.9231,8.12
746,2019/7/6,12:25,41-34.13N,141-35.83E,180,14.712,32.9844,8.12
747,2019/7/6,12:26,41-33.85N,141-35.83E,180,14.755,33.0397,8.12
748,2019/7/6,12:27,41-33.57N,141-35.82E,182,14.813,33.0747,8.12
749,2019/7/6,12:28,41-33.29N,141-35.80E,182,14.732,33.097,8.12
750,2019/7/6,12:29,41-33.01N,141-35.79E,181,14.596,33.1235,8.12
751,2019/7/6,12:30,41-32.73N,141-35.79E,181,14.423,33.1565,8.12
752,2019/7/6,12:31,41-32.43N,141-35.78E,180,14.337,33.1992,8.12
753,2019/7/6,12:32,41-32.16N,141-35.77E,181,14.154,33.227,8.12
754,2019/7/6,12:33,41-31.87N,141-35.76E,181,13.772,33.2224,8.12
755,2019/7/6,12:34,41-31.59N,141-35.75E,181,13.558,33.2314,8.12
756,2019/7/6,12:35,41-31.31N,141-35.74E,182,13.38,33.2541,8.12
757,2019/7/6,12:36,41-31.02N,141-35.73E,181,13.01,33.2363,8.12
758,2019/7/6,12:37,41-30.73N,141-35.71E,181,12.754,33.196,8.12
759,2019/7/6,12:38,41-30.44N,141-35.71E,181,12.209,33.1675,8.12
760,2019/7/6,12:39,41-30.14N,141-35.70E,180,12.213,33.1414,8.12
761,2019/7/6,12:40,41-29.87N,141-35.69E,182,13.163,33.1316,8.12
762,2019/7/6,12:41,41-29.57N,141-35.66E,184,14.143,33.0192,8.12
763,2019/7/6,12:42,41-29.29N,141-35.63E,184,14.362,32.7544,8.11
764,2019/7/6,12:43,41-29.01N,141-35.60E,184,14.751,32.678,8.11
765,2019/7/6,12:44,41-28.75N,141-35.58E,183,14.814,32.7391,8.1
766,2019/7/6,12:45,41-28.47N,141-35.55E,184,14.59,32.8521,8.1
767,2019/7/6,12:46,41-28.19N,141-35.52E,185,14.678,33.0874,8.1
768,2019/7/6,12:47,41-27.92N,141-35.49E,184,14.453,33.3188,8.11
769,2019/7/6,12:48,41-27.64N,141-35.46E,184,14.482,33.4746,8.1
770,2019/7/6,12:49,41-27.36N,141-35.43E,185,14.63,33.6015,8.11
771,2019/7/6,12:50,41-27.08N,141-35.38E,186,14.772,33.6634,8.1
772,2019/7/6,12:51,41-26.80N,141-35.34E,186,15.077,33.6878,8.1
773,2019/7/6,12:52,41-26.53N,141-35.30E,186,15.237,33.6895,8.1
774,2019/7/6,12:53,41-26.25N,141-35.25E,187,15.286,33.6746,8.1
775,2019/7/6,12:54,41-25.98N,141-35.20E,187,15.354,33.6754,8.11
776,2019/7/6,12:55,41-25.69N,141-35.16E,187,15.334,33.6912,8.11
777,2019/7/6,12:56,41-25.42N,141-35.11E,187,15.146,33.7079,8.11
778,2019/7/6,12:57,41-25.13N,141-35.07E,186,14.968,33.7409,8.11
779,2019/7/6,12:58,41-24.85N,141-35.03E,186,15.06,33.803,8.11
780,2019/7/6,12:59,41-24.57N,141-34.98E,186,15.259,33.8166,8.11
781,2019/7/6,13:00,41-24.29N,141-34.94E,186,15.404,33.8092,8.11
782,2019/7/6,13:01,41-24.00N,141-34.90E,186,15.479,33.7753,8.1
783,2019/7/6,13:02,41-23.72N,141-34.86E,186,15.488,33.7468,8.11
784,2019/7/6,13:03,41-23.44N,141-34.82E,186,15.58,33.7351,8.11
785,2019/7/6,13:04,41-23.16N,141-34.77E,186,15.574,33.7292,8.11
786,2019/7/6,13:05,41-22.87N,141-34.73E,186,15.292,33.7152,8.11
787,2019/7/6,13:06,41-22.59N,141-34.68E,186,15.075,33.7114,8.11
788,2019/7/6,13:07,41-22.32N,141-34.64E,185,14.898,33.7453,8.12
789,2019/7/6,13:08,41-22.05N,141-34.61E,184,14.817,33.7114,8.12
790,2019/7/6,13:09,41-21.77N,141-34.58E,184,14.777,33.5939,8.13
791,2019/7/6,13:10,41-21.49N,141-34.55E,184,14.755,33.4715,8.14
792,2019/7/6,13:11,41-21.21N,141-34.52E,184,14.722,33.3658,8.13
793,2019/7/6,13:12,41-20.93N,141-34.49E,184,14.628,33.2845,8.14
794,2019/7/6,13:13,41-20.66N,141-34.46E,184,14.455,33.2126,8.15
795,2019/7/6,13:14,41-20.38N,141-34.43E,184,14.408,33.1704,8.15
796,2019/7/6,13:15,41-20.10N,141-34.40E,184,14.408,33.1187,8.15
797,2019/7/6,13:16,41-19.82N,141-34.39E,182,14.406,33.0288,8.15
798,2019/7/6,13:17,41-19.54N,141-34.37E,182,14.401,32.9425,8.15
799,2019/7/6,13:18,41-19.26N,141-34.36E,182,14.362,32.8859,8.16
800,2019/7/6,13:19,41-18.98N,141-34.34E,181,14.343,32.8474,8.15
801,2019/7/6,13:20,41-18.69N,141-34.33E,182,14.375,32.8182,8.15
802,2019/7/6,13:21,41-18.41N,141-34.32E,181,14.373,32.7866,8.16
803,2019/7/6,13:22,41-18.12N,141-34.31E,181,14.308,32.7597,8.16
804,2019/7/6,13:23,41-17.82N,141-34.30E,181,14.298,32.7391,8.16
805,2019/7/6,13:24,41-17.54N,141-34.29E,180,14.282,32.7249,8.16
806,2019/7/6,13:25,41-17.27N,141-34.30E,177,14.288,32.7002,8.16
807,2019/7/6,13:26,41-16.98N,141-34.32E,176,14.297,32.6683,8.16
808,2019/7/6,13:27,41-16.69N,141-34.35E,176,14.341,32.6372,8.16
809,2019/7/6,13:28,41-16.41N,141-34.38E,175,14.363,32.6167,8.16
810,2019/7/6,13:29,41-16.12N,141-34.42E,173,14.367,32.5926,8.16
811,2019/7/6,13:30,41-15.84N,141-34.46E,172,14.367,32.5798,8.16
812,2019/7/6,13:31,41-15.56N,141-34.52E,172,14.367,32.5694,8.16
813,2019/7/6,13:32,41-15.27N,141-34.57E,172,14.357,32.564,8.16
814,2019/7/6,13:33,41-14.98N,141-34.62E,172,14.354,32.5572,8.16
815,2019/7/6,13:34,41-14.70N,141-34.67E,172,14.337,32.5513,8.16
816,2019/7/6,13:35,41-14.41N,141-34.72E,172,14.323,32.5447,8.16
817,2019/7/6,13:36,41-14.13N,141-34.77E,172,14.3,32.5396,8.16
818,2019/7/6,13:37,41-13.84N,141-34.82E,172,14.298,32.5328,8.16
819,2019/7/6,13:38,41-13.55N,141-34.88E,171,14.303,32.5295,8.16
820,2019/7/6,13:39,41-13.27N,141-34.93E,171,14.301,32.5219,8.16
821,2019/7/6,13:40,41-12.98N,141-34.99E,171,14.291,32.5125,8.16
822,2019/7/6,13:41,41-12.70N,141-35.04E,171,14.257,32.5062,8.16
823,2019/7/6,13:42,41-12.41N,141-35.10E,171,14.257,32.5064,8.16
824,2019/7/6,13:43,41-12.12N,141-35.16E,170,14.274,32.5078,8.16
825,2019/7/6,13:44,41-11.83N,141-35.22E,170,14.275,32.5068,8.16
826,2019/7/6,13:45,41-11.57N,141-35.28E,171,14.268,32.5028,8.16
827,2019/7/6,13:46,41-11.29N,141-35.33E,171,14.235,32.4986,8.16
828,2019/7/6,13:47,41-10.99N,141-35.39E,171,14.236,32.4996,8.16
829,2019/7/6,13:48,41-10.72N,141-35.45E,169,14.276,32.5017,8.16
830,2019/7/6,13:49,41-10.45N,141-35.53E,168,14.335,32.4986,8.16
831,2019/7/6,13:50,41-10.16N,141-35.61E,168,14.507,32.4854,8.17
832,2019/7/6,13:51,41-09.89N,141-35.68E,167,14.73,32.4706,8.17
833,2019/7/6,13:52,41-09.62N,141-35.76E,168,14.845,32.4397,8.16
834,2019/7/6,13:53,41-09.35N,141-35.84E,167,14.894,32.4263,8.16
835,2019/7/6,13:54,41-09.08N,141-35.91E,167,14.897,32.4458,8.16
836,2019/7/6,13:55,41-08.81N,141-35.99E,167,14.906,32.4822,8.15
837,2019/7/6,13:56,41-08.55N,141-36.07E,167,14.865,32.5169,8.16
838,2019/7/6,13:57,41-08.28N,141-36.15E,167,14.832,32.5462,8.15
839,2019/7/6,13:58,41-08.01N,141-36.24E,166,14.813,32.5701,8.16
840,2019/7/6,13:59,41-07.72N,141-36.33E,166,14.8,32.5857,8.16
841,2019/7/6,14:00,41-07.47N,141-36.41E,165,14.809,32.5948,8.16
842,2019/7/6,14:01,41-07.20N,141-36.51E,164,14.823,32.5966,8.16
843,2019/7/6,14:02,41-06.94N,141-36.60E,164,14.829,32.5938,8.16
844,2019/7/6,14:03,41-06.67N,141-36.70E,165,14.821,32.5915,8.16
845,2019/7/6,14:04,41-06.41N,141-36.79E,165,14.785,32.5906,8.16
846,2019/7/6,14:05,41-06.14N,141-36.89E,164,14.749,32.5914,8.16
847,2019/7/6,14:06,41-05.88N,141-36.98E,164,14.714,32.5989,8.15
848,2019/7/6,14:07,41-05.62N,141-37.08E,165,14.696,32.6033,8.15
849,2019/7/6,14:08,41-05.35N,141-37.17E,164,14.674,32.6026,8.16
850,2019/7/6,14:09,41-05.08N,141-37.27E,164,14.67,32.5961,8.15
851,2019/7/6,14:10,41-04.82N,141-37.37E,164,14.671,32.5902,8.16
852,2019/7/6,14:11,41-04.56N,141-37.46E,164,14.664,32.5801,8.15
853,2019/7/6,14:12,41-04.27N,141-37.57E,164,14.674,32.5769,8.16
854,2019/7/6,14:13,41-04.02N,141-37.66E,164,14.696,32.5721,8.15
855,2019/7/6,14:14,41-03.76N,141-37.76E,164,14.689,32.5666,8.15
856,2019/7/6,14:15,41-03.49N,141-37.86E,164,14.708,32.566,8.16
857,2019/7/6,14:16,41-03.22N,141-37.96E,164,14.728,32.5666,8.15
858,2019/7/6,14:17,41-02.96N,141-38.05E,165,14.75,32.5693,8.15
859,2019/7/6,14:18,41-02.69N,141-38.15E,164,14.785,32.5711,8.15
860,2019/7/6,14:19,41-02.40N,141-38.25E,164,14.857,32.5764,8.15
861,2019/7/6,14:20,41-02.16N,141-38.34E,164,14.928,32.5808,8.15
862,2019/7/6,14:21,41-01.89N,141-38.44E,164,14.929,32.5852,8.15
863,2019/7/6,14:22,41-01.62N,141-38.54E,164,14.949,32.5955,8.15
864,2019/7/6,14:23,41-01.35N,141-38.64E,164,14.966,32.6134,8.15
865,2019/7/6,14:24,41-01.08N,141-38.74E,164,14.956,32.636,8.15
866,2019/7/6,14:25,41-00.80N,141-38.85E,164,14.947,32.6562,8.15
867,2019/7/6,14:26,41-00.54N,141-38.94E,164,14.949,32.6735,8.15
868,2019/7/6,14:27,41-00.28N,141-39.04E,164,14.943,32.6855,8.15
869,2019/7/6,14:28,41-00.01N,141-39.15E,163,14.946,32.693,8.15
870,2019/7/6,14:29,40-59.74N,141-39.25E,163,14.959,32.7002,8.15
871,2019/7/6,14:30,40-59.47N,141-39.35E,164,14.935,32.7002,8.14
872,2019/7/6,14:31,40-59.20N,141-39.45E,164,14.921,32.7016,8.14
873,2019/7/6,14:32,40-58.94N,141-39.55E,163,14.882,32.7038,8.14
874,2019/7/6,14:33,40-58.67N,141-39.66E,163,14.825,32.7078,8.15
875,2019/7/6,14:34,40-58.41N,141-39.76E,163,14.757,32.709,8.15
876,2019/7/6,14:35,40-58.13N,141-39.88E,162,14.636,32.7142,8.15
877,2019/7/6,14:36,40-57.87N,141-39.98E,162,14.548,32.7138,8.15
878,2019/7/6,14:37,40-57.60N,141-40.10E,162,14.492,32.7139,8.15
879,2019/7/6,14:38,40-57.33N,141-40.22E,161,14.468,32.706,8.15
880,2019/7/6,14:39,40-57.05N,141-40.34E,161,14.485,32.6904,8.16
881,2019/7/6,14:40,40-56.80N,141-40.45E,162,14.434,32.673,8.15
882,2019/7/6,14:41,40-56.53N,141-40.57E,162,14.342,32.6611,8.15
883,2019/7/6,14:42,40-56.26N,141-40.69E,160,14.233,32.663,8.15
884,2019/7/6,14:43,40-56.00N,141-40.81E,160,14.032,32.6731,8.15
885,2019/7/6,14:44,40-55.73N,141-40.94E,159,14.413,32.6868,8.15
886,2019/7/6,14:45,40-55.46N,141-41.06E,161,14.554,32.6883,8.15
887,2019/7/6,14:46,40-55.20N,141-41.18E,161,14.729,32.6383,8.15
888,2019/7/6,14:47,40-54.94N,141-41.30E,161,14.895,32.6619,8.15
889,2019/7/6,14:48,40-54.68N,141-41.42E,160,15.113,32.7243,8.14
890,2019/7/6,14:49,40-54.42N,141-41.54E,159,15.319,32.7908,8.13